Flag for Dominican Republic Weather past 2 weeks in Santiago de los Caballeros, Dominican Republic

Now
66 °F

Rain. Partly sunny.


Feels Like: 66 °F
Forecast: 70 / 83 °F
Wind: No wind

Location: Santiago

Current Time: Mar 4, 2015 at 7:48:35 AM

Latest Report: Mar 4, 2015 at 7:00 AM


Visibility: 4 mi

Pressure: 30.07 "Hg

Humidity: 100%

Dew point: 66 °F

Location of Santiago de los CaballerosLocation

Historic Weather in Santiago de los Caballeros — Graph

°F

Santiago de los Caballeros temperature yesterday

Maximum temperature yesterday: 79 °F (at 12:00 PM)
Minimum temperature yesterday: 66 °F (at 12:00 AM)
Average temperature yesterday: 72 °F

Past Weeks' High & Low Weather Summary

 TemperatureHumidityPressure
High88 °F (Feb 18, 2:00 PM)100% (Feb 18, 3:00 AM)30.21 "Hg (Feb 18, 3:00 AM)
Low64 °F (Feb 23, 7:00 AM)48% (Mar 1, 4:00 PM)29.89 "Hg (Mar 1, 9:00 PM)
Average75 °F83%30.05 "Hg
* Reported Feb 17 6:00 AM — Mar 4 6:00 AM, Santiago de los Caballeros, Weather by CustomWeather, © 2015

Note: Actual official high and low records may vary slightly from our data, if they occured in-between our weather recording intervals... More about our weather records

Advertising

Santiago de los Caballeros weather history for previous 24 hours

 ConditionsComfort  
Time TempWeatherWind HumidityBarometerVisibility
6:00 AM
Wed, Mar 4
66 °FPassing clouds.No wind100%30.04 "HgN/A
5:00 AM66 °FPassing clouds.No wind100%30.04 "HgN/A
4:00 AM66 °FPassing clouds.No wind100%30.04 "HgN/A
3:00 AM66 °FPassing clouds.No wind100%30.04 "HgN/A
2:00 AM66 °FPassing clouds.No wind100%30.07 "HgN/A
1:00 AM68 °FPassing clouds.No wind100%30.09 "HgN/A
12:00 AM68 °FPassing clouds.No wind100%30.09 "HgN/A
11:00 PM
Tue, Mar 3
70 °FPassing clouds.No wind94%30.09 "HgN/A
10:00 PM70 °FPassing clouds.No wind94%30.09 "HgN/A
9:00 PM70 °FPassing clouds.7 mph94%30.09 "HgN/A
8:00 PM73 °FPassing clouds.12 mph89%30.07 "HgN/A
7:00 PM75 °FPassing clouds.5 mph83%30.04 "HgN/A
6:00 PM77 °FScattered clouds.No wind79%30.01 "HgN/A
5:00 PM75 °FLight rain. Partly sunny.No wind83%30.01 "Hg5 mi
4:00 PM75 °FScattered showers. Partly sunny.7 mph89%30.04 "Hg5 mi
3:00 PM73 °FRain. Overcast.9 mph94%30.07 "Hg4 mi
2:00 PM70 °FScattered showers. Partly sunny.5 mph94%30.09 "Hg5 mi
1:00 PM77 °FScattered showers. Partly sunny.7 mph79%30.09 "Hg5 mi
12:00 PM79 °FLight rain. Partly sunny.9 mph70%30.09 "Hg4 mi
11:00 AM77 °FScattered showers. Scattered clouds.7 mph79%30.12 "Hg5 mi
10:00 AM77 °FScattered clouds.No wind79%30.12 "HgN/A
9:00 AM73 °FScattered clouds.No wind89%30.09 "HgN/A
8:00 AM66 °FScattered clouds.No wind100%30.09 "Hg4 mi
7:00 AM66 °FPassing clouds.No wind100%30.04 "HgN/A
Weather by CustomWeather, © 2015

See weather overviewHow to use our weather pages